Regional Weather Roundup
Issued by NWS

Current Version | Previous Version | Text Only | Print | Product List | Glossary On
Versions: 1 2 3 4 5 6 7 8 9 10 11 12 13 14 15 16 17 18 19 20 21 22 23 24 25 26 27 28 29 30 31 32 33 34 35 36 37 38 39 40 41 42 43 44 45 46 47 48 49 50
000
ASUS45 KABQ 202210
RWRNM
WEATHER ROUNDUP FOR NEW MEXICO
NATIONAL WEATHER SERVICE ALBUQUERQUE NM
400 PM MDT MON OCT 20 2014

NOTE: "FAIR" MEANS FEW OR NO CLOUDS BELOW 12,000 FEET AGL WITH NO
       SIGNIFICANT WEATHER OR OBSTRUCTIONS TO VISION.

      THIS PRODUCT IS RELEASED AS TWO VERSIONS.  ONE VERSION NEAR
      THE TOP OF THE HOUR CONTAINING PRELIMINARY DATA FROM ALBUQUERQUE
      AND OTHER STATIONS.  A FINAL VERSION WITH ADDITIONAL DATA IS
      ISSUED ABOUT 10 MINUTES AFTER THE HOUR.

NMZ501-503-504-510>518-202300-
NORTHWEST PLATEAU/NORTHCENTRAL MOUNTAINS

CITY           SKY/WX    TMP DP  RH WIND       PRES   REMARKS
FARMINGTON     CLOUDY    68  39  34 CALM      30.10F
LOS ALAMOS     PTSUNNY   63  38  39 S12G20    30.21S
SANTA FE       PTSUNNY   69  39  33 W16       30.15S
TAOS           PTSUNNY   68  30  24 SW5       30.20S
ANGEL FIRE     FAIR      61  27  27 SE8G17    30.29S

$$
NMZ402-403-502-505>509-202300-
WESTCENTRAL MOUNTAINS/SOUTHWEST MOUNTAINS

CITY           SKY/WX    TMP DP  RH WIND       PRES   REMARKS
GALLUP         MOSUNNY   64  43  46 NE5       30.15F
GRANTS         MOSUNNY   68  37  32 SE7G18    30.17S
SILVER CITY    MOSUNNY   64  48  55 E6        30.11F

$$
NMZ407-409-411-412-202300-
SOUTHERN DESERTS

CITY           SKY/WX    TMP DP  RH WIND       PRES   REMARKS
LORDSBURG      FAIR      70  50  49 MISG      30.03F
DEMING         MOSUNNY   70  51  51 E8        30.04F
LAS CRUCES     LGT RAIN  65  58  77 E3        30.06S
HOLLOMAN AFB   PTSUNNY   66  55  66 SE1       30.05S
T OR C         MOSUNNY   71  47  42 CALM      30.07F

$$
NMZ519>523-202300-
CENTRAL VALLEYS/CENTRAL HIGHLANDS

CITY           SKY/WX    TMP DP  RH WIND       PRES   REMARKS
ALBUQUERQUE    TSTM      58  49  72 E23G30    30.16R
DOUBLE EAGLE   PTSUNNY   70  43  37 E17       30.15S
MORIARTY ARPT  CLOUDY    62  44  50 W8        30.16S
CLINES CORNERS MOSUNNY   66  37  34 E10G22    30.19S
BELEN          DRIZZLE   63  48  58 SE17      30.14R
SOCORRO        LGT RAIN  59  55  85 NE14      30.11R

$$
NMZ524>526-539-540-202300-
SOUTHCENTRAL MOUNTAINS

CITY           SKY/WX    TMP DP  RH WIND       PRES   REMARKS
RUIDOSO        NOT AVBL

$$
NMZ527>531-202300-
NORTHEAST HIGHLANDS/NORTHEAST PLAINS

CITY           SKY/WX    TMP DP  RH WIND       PRES   REMARKS
LAS VEGAS      PTSUNNY   63  39  41 E9        30.21S
RATON          SUNNY     71  30  21 S12G22    30.17S
CLAYTON        SUNNY     71  42  35 E8        30.15S

$$
NMZ532>537-202300-
EASTCENTRAL PLAINS

CITY           SKY/WX    TMP DP  RH WIND       PRES   REMARKS
TUCUMCARI      SUNNY     78  44  29 VRB6      30.06F
CANNON AFB     PTSUNNY   73  49  42 SE9       30.10R
CLOVIS AIRPORT PTSUNNY   73  52  46 SE13      30.11S

$$
NMZ028-029-538-202300-
SOUTHEAST PLAINS

CITY           SKY/WX    TMP DP  RH WIND       PRES   REMARKS
ROSWELL        MOSUNNY   73  57  57 S7        30.05F
CARLSBAD       CLOUDY    71  57  61 CALM      30.03F
HOBBS          MOSUNNY   72  54  53 E13G20    30.07S


$$


USA.gov is the U.S. government's official web portal to all federal, state and local government web resources and services.